| time (UTC) | temp F | wind direction | speed MPH | gust MPH | rain 1hr in | rain 24hr in | rain mn in | humidity % | barometer mb |
| 20260901060339 | 56 | 153 | 6.0 | 7.0 | 0.00 | 0.00 | 0.00 | 99 | 1027.1 |
| 20260901055833 | 56 | 130 | 8.0 | 9.0 | 0.00 | 0.06 | 0.06 | 99 | 1027.1 |
| 20260901055330 | 56 | 130 | 8.0 | 9.0 | 0.00 | 0.06 | 0.06 | 99 | 1027.1 |
| 20260901054826 | 56 | 140 | 7.0 | 8.0 | 0.00 | 0.06 | 0.06 | 99 | 1027.1 |
| 20260901054323 | 56 | 140 | 7.0 | 8.0 | 0.00 | 0.06 | 0.06 | 99 | 1027.1 |
| 20260901053819 | 56 | 149 | 6.0 | 8.0 | 0.00 | 0.06 | 0.06 | 99 | 1027.2 |
| 20260901053313 | 56 | 149 | 6.0 | 8.0 | 0.00 | 0.06 | 0.06 | 99 | 1027.2 |
| 20260901052809 | 56 | 82 | 4.0 | 4.0 | 0.00 | 0.06 | 0.06 | 99 | 1027.5 |
| 20260901052307 | 56 | 82 | 4.0 | 4.0 | 0.00 | 0.06 | 0.06 | 99 | 1027.5 |
| 20260901051757 | 56 | 123 | 5.0 | 6.0 | 0.00 | 0.06 | 0.06 | 99 | 1027.3 |
| 20260901051252 | 56 | 123 | 5.0 | 6.0 | 0.00 | 0.06 | 0.06 | 99 | 1027.3 |
| 20260901050748 | 57 | 153 | 6.0 | 8.0 | 0.00 | 0.06 | 0.06 | 99 | 1027.5 |
| 20260901050242 | 57 | 153 | 6.0 | 8.0 | 0.00 | 0.06 | 0.06 | 99 | 1027.5 |
| 20260901045738 | 56 | 116 | 1.0 | 1.0 | 0.00 | 0.06 | 0.06 | 99 | 1026.8 |
| 20260901045233 | 56 | 116 | 1.0 | 1.0 | 0.00 | 0.06 | 0.06 | 99 | 1026.8 |
| 20260901044728 | 57 | 157 | 9.0 | 9.0 | 0.00 | 0.06 | 0.06 | 99 | 1027.6 |
| 20260901044224 | 57 | 157 | 9.0 | 9.0 | 0.00 | 0.06 | 0.06 | 99 | 1027.6 |
| 20260901043720 | 57 | 147 | 6.0 | 7.0 | 0.00 | 0.06 | 0.06 | 99 | 1028.1 |
| 20260901043215 | 57 | 147 | 6.0 | 7.0 | 0.00 | 0.06 | 0.06 | 99 | 1028.1 |
| 20260901042714 | 57 | 98 | 6.0 | 7.0 | 0.00 | 0.06 | 0.06 | 99 | 1028.6 |
| 20260901042209 | 57 | 98 | 6.0 | 7.0 | 0.00 | 0.06 | 0.06 | 99 | 1028.6 |
| 20260901041705 | 56 | 87 | 8.0 | 9.0 | 0.05 | 0.06 | 0.06 | 99 | 1028.8 |
| 20260901041204 | 56 | 87 | 8.0 | 9.0 | 0.05 | 0.06 | 0.06 | 99 | 1028.8 |
| 20260901040659 | 57 | 117 | 9.0 | 10.0 | 0.05 | 0.06 | 0.06 | 99 | 1028.7 |
| 20260901040153 | 57 | 117 | 9.0 | 10.0 | 0.05 | 0.06 | 0.06 | 99 | 1028.7 |
| 20260901035652 | 57 | 77 | 11.0 | 13.0 | 0.00 | 0.05 | 0.05 | 99 | 1029.0 |
| 20260901035150 | 57 | 77 | 11.0 | 13.0 | 0.00 | 0.05 | 0.05 | 99 | 1029.0 |
| 20260901034644 | 57 | 88 | 7.0 | 8.0 | 0.00 | 0.05 | 0.05 | 99 | 1028.6 |
| 20260901034139 | 57 | 88 | 7.0 | 8.0 | 0.00 | 0.05 | 0.05 | 99 | 1028.6 |
| 20260901033638 | 57 | 96 | 9.0 | 10.0 | 0.00 | 0.05 | 0.05 | 99 | 1028.3 |
| 20260901033137 | 57 | 96 | 9.0 | 10.0 | 0.00 | 0.05 | 0.05 | 99 | 1028.3 |
| 20260901032636 | 56 | 117 | 8.0 | 9.0 | 0.00 | 0.05 | 0.05 | 99 | 1028.5 |
| 20260901032131 | 56 | 117 | 8.0 | 9.0 | 0.00 | 0.05 | 0.05 | 99 | 1028.5 |
| 20260901031627 | 57 | 127 | 9.0 | 10.0 | 0.00 | 0.05 | 0.05 | 99 | 1028.3 |
| 20260901031123 | 57 | 127 | 9.0 | 10.0 | 0.00 | 0.05 | 0.05 | 99 | 1028.3 |
| 20260901030622 | 57 | 112 | 9.0 | 11.0 | 0.00 | 0.05 | 0.05 | 99 | 1028.5 |
| 20260901030117 | 57 | 112 | 9.0 | 11.0 | 0.00 | 0.05 | 0.05 | 99 | 1028.5 |
| 20260901025612 | 56 | 109 | 10.0 | 11.0 | 0.00 | 0.05 | 0.05 | 99 | 1028.5 |
| 20260901025106 | 56 | 109 | 10.0 | 11.0 | 0.00 | 0.05 | 0.05 | 99 | 1028.5 |
| 20260901024601 | 56 | 117 | 7.0 | 8.0 | 0.00 | 0.05 | 0.05 | 99 | 1028.3 |
| 20260901024100 | 56 | 117 | 7.0 | 8.0 | 0.00 | 0.05 | 0.05 | 99 | 1028.3 |
| 20260901023559 | 56 | 167 | 12.0 | 14.0 | 0.00 | 0.05 | 0.05 | 99 | 1028.1 |
| 20260901023054 | 56 | 167 | 12.0 | 14.0 | 0.00 | 0.05 | 0.05 | 99 | 1028.1 |
| 20260901022549 | 56 | 142 | 13.0 | 16.0 | 0.07 | 0.05 | 0.05 | 99 | 1027.8 |
| 20260901022044 | 56 | 142 | 13.0 | 16.0 | 0.07 | 0.05 | 0.05 | 99 | 1027.8 |
| 20260901021540 | 56 | 154 | 14.0 | 16.0 | 0.00 | 0.04 | 0.04 | 99 | 1028.1 |
| 20260901021035 | 56 | 154 | 14.0 | 16.0 | 0.00 | 0.04 | 0.04 | 99 | 1028.1 |
| 20260901020531 | 56 | 153 | 15.0 | 17.0 | 0.05 | 0.04 | 0.04 | 99 | 1028.5 |
| 20260901020026 | 56 | 153 | 15.0 | 17.0 | 0.05 | 0.04 | 0.04 | 99 | 1028.5 |
| 20260901015521 | 57 | 102 | 11.0 | 13.0 | 0.00 | 0.03 | 0.03 | 99 | 1028.5 |
| 20260901015021 | 57 | 102 | 11.0 | 13.0 | 0.00 | 0.03 | 0.03 | 99 | 1028.5 |
| 20260901014516 | 58 | 125 | 13.0 | 14.0 | 0.00 | 0.03 | 0.03 | 99 | 1028.3 |
| 20260901014013 | 58 | 125 | 13.0 | 14.0 | 0.00 | 0.03 | 0.03 | 99 | 1028.3 |
| 20260901013508 | 58 | 107 | 7.0 | 8.0 | 0.00 | 0.03 | 0.03 | 99 | 1028.3 |
| 20260901013004 | 58 | 107 | 7.0 | 8.0 | 0.00 | 0.03 | 0.03 | 99 | 1028.3 |
| 20260901012503 | 59 | 158 | 13.0 | 15.0 | 0.00 | 0.03 | 0.03 | 99 | 1027.8 |
| 20260901011958 | 59 | 158 | 13.0 | 15.0 | 0.00 | 0.03 | 0.03 | 99 | 1027.8 |
| 20260901011455 | 59 | 137 | 12.0 | 13.0 | 0.00 | 0.03 | 0.03 | 99 | 1027.8 |
| 20260901010952 | 59 | 137 | 12.0 | 13.0 | 0.00 | 0.03 | 0.03 | 99 | 1027.8 |
| 20260901010448 | 59 | 151 | 13.0 | 15.0 | 0.00 | 0.03 | 0.03 | 99 | 1028.0 |
| 20260901005947 | 59 | 151 | 13.0 | 15.0 | 0.00 | 0.03 | 0.03 | 99 | 1028.0 |
| 20260901005442 | 59 | 113 | 8.0 | 10.0 | 0.00 | 0.03 | 0.03 | 99 | 1028.1 |
| 20260901004937 | 59 | 139 | 7.0 | 9.0 | 0.00 | 0.03 | 0.03 | 99 | 1028.0 |
| 20260901004436 | 59 | 139 | 7.0 | 9.0 | 0.00 | 0.03 | 0.03 | 99 | 1028.0 |
| 20260901003931 | 60 | 99 | 6.0 | 8.0 | 0.00 | 0.03 | 0.03 | 99 | 1028.0 |
| 20260901003421 | 60 | 99 | 6.0 | 8.0 | 0.00 | 0.03 | 0.03 | 99 | 1028.0 |
| 20260901002919 | 63 | 89 | 3.0 | 3.0 | 0.07 | 0.03 | 0.03 | 99 | 1028.0 |
| 20260901002418 | 63 | 89 | 3.0 | 3.0 | 0.07 | 0.03 | 0.03 | 99 | 1028.0 |
| 20260901001913 | 62 | 194 | 4.0 | 6.0 | 0.12 | 0.02 | 0.02 | 99 | 1027.7 |
| 20260901001409 | 62 | 194 | 4.0 | 6.0 | 0.12 | 0.02 | 0.02 | 99 | 1027.7 |
| 20260901000904 | 61 | 134 | 15.0 | 19.0 | 0.00 | 0.00 | 0.00 | 99 | 1027.5 |
| 20260901000359 | 61 | 134 | 15.0 | 19.0 | 0.00 | 0.00 | 0.00 | 99 | 1027.5 |
| 20260831235857 | 66 | 140 | 11.0 | 14.0 | 0.00 | 0.00 | 0.00 | 99 | 1027.2 |
| 20260831235354 | 66 | 140 | 11.0 | 14.0 | 0.00 | 0.00 | 0.00 | 99 | 1027.2 |
| 20260831234853 | 70 | 68 | 3.0 | 4.0 | 0.00 | 0.00 | 0.00 | 99 | 1027.2 |
| 20260831234348 | 70 | 68 | 3.0 | 4.0 | 0.00 | 0.00 | 0.00 | 99 | 1027.2 |
| 20260831233844 | 70 | 352 | 11.0 | 11.0 | 0.00 | 0.00 | 0.00 | 99 | 1027.0 |
| 20260831233338 | 70 | 352 | 11.0 | 11.0 | 0.00 | 0.00 | 0.00 | 99 | 1027.0 |
| 20260831232834 | 71 | 354 | 10.0 | 11.0 | 0.00 | 0.00 | 0.00 | 99 | 1027.1 |
| 20260831232330 | 71 | 354 | 10.0 | 11.0 | 0.00 | 0.00 | 0.00 | 99 | 1027.1 |
| 20260831231820 | 71 | 354 | 11.0 | 13.0 | 0.00 | 0.00 | 0.00 | 99 | 1027.3 |
| 20260831231317 | 71 | 354 | 11.0 | 13.0 | 0.00 | 0.00 | 0.00 | 99 | 1027.3 |
| 20260831230812 | 71 | 355 | 11.0 | 13.0 | 0.00 | 0.00 | 0.00 | 99 | 1027.0 |
| 20260831230307 | 71 | 355 | 11.0 | 13.0 | 0.00 | 0.00 | 0.00 | 99 | 1027.0 |
| 20260831225806 | 71 | 10 | 9.0 | 10.0 | 0.00 | 0.00 | 0.00 | 99 | 1026.8 |
| 20260831225301 | 71 | 10 | 9.0 | 10.0 | 0.00 | 0.00 | 0.00 | 99 | 1026.8 |
| 20260831224756 | 71 | 359 | 11.0 | 13.0 | 0.00 | 0.00 | 0.00 | 99 | 1026.7 |
| 20260831224251 | 71 | 359 | 11.0 | 13.0 | 0.00 | 0.00 | 0.00 | 99 | 1026.7 |
| 20260831223746 | 72 | 12 | 12.0 | 14.0 | 0.00 | 0.00 | 0.00 | 99 | 1026.8 |
| 20260831223243 | 72 | 12 | 12.0 | 14.0 | 0.00 | 0.00 | 0.00 | 99 | 1026.8 |
| 20260831222739 | 73 | 5 | 9.0 | 9.0 | 0.00 | 0.00 | 0.00 | 99 | 1026.7 |
| 20260831222234 | 73 | 5 | 9.0 | 9.0 | 0.00 | 0.00 | 0.00 | 99 | 1026.7 |
| 20260831221730 | 74 | 350 | 5.0 | 6.0 | 0.00 | 0.00 | 0.00 | 99 | 1026.7 |
| 20260831221225 | 74 | 350 | 5.0 | 6.0 | 0.00 | 0.00 | 0.00 | 99 | 1026.7 |
| 20260831220720 | 74 | 11 | 5.0 | 6.0 | 0.00 | 0.00 | 0.00 | 99 | 1026.7 |
| 20260831220215 | 74 | 11 | 5.0 | 6.0 | 0.00 | 0.00 | 0.00 | 99 | 1026.7 |
| 20260831215710 | 73 | 2 | 5.0 | 7.0 | 0.00 | 0.00 | 0.00 | 99 | 1026.8 |
| 20260831215206 | 73 | 2 | 5.0 | 7.0 | 0.00 | 0.00 | 0.00 | 99 | 1026.8 |
| 20260831214703 | 73 | 338 | 8.0 | 10.0 | 0.00 | 0.00 | 0.00 | 99 | 1026.8 |
| 20260831214159 | 73 | 338 | 8.0 | 10.0 | 0.00 | 0.00 | 0.00 | 99 | 1026.8 |
| 20260831213655 | 72 | 5 | 7.0 | 8.0 | 0.00 | 0.00 | 0.00 | 99 | 1027.3 |
| 20260831213150 | 72 | 5 | 7.0 | 8.0 | 0.00 | 0.00 | 0.00 | 99 | 1027.3 |
| 20260831212640 | 73 | 17 | 5.0 | 6.0 | 0.00 | 0.00 | 0.00 | 99 | 1027.3 |
| 20260831212137 | 73 | 17 | 5.0 | 6.0 | 0.00 | 0.00 | 0.00 | 99 | 1027.3 |
| 20260831211635 | 74 | 15 | 8.0 | 9.0 | 0.00 | 0.00 | 0.00 | 99 | 1027.2 |
| 20260831211130 | 74 | 15 | 8.0 | 9.0 | 0.00 | 0.00 | 0.00 | 99 | 1027.2 |
| 20260831210625 | 72 | 359 | 5.0 | 7.0 | 0.00 | 0.00 | 0.00 | 99 | 1027.6 |
| 20260831210121 | 72 | 359 | 5.0 | 7.0 | 0.00 | 0.00 | 0.00 | 99 | 1027.6 |
| 20260831205620 | 73 | 30 | 9.0 | 11.0 | 0.00 | 0.00 | 0.00 | 99 | 1027.8 |
| 20260831205116 | 73 | 30 | 9.0 | 11.0 | 0.00 | 0.00 | 0.00 | 99 | 1027.8 |
| 20260831204616 | 72 | 355 | 7.0 | 9.0 | 0.00 | 0.00 | 0.00 | 99 | 1027.7 |
| 20260831204114 | 72 | 355 | 7.0 | 9.0 | 0.00 | 0.00 | 0.00 | 99 | 1027.7 |
| 20260831203609 | 72 | 1 | 8.0 | 10.0 | 0.00 | 0.00 | 0.00 | 99 | 1027.7 |
| 20260831203108 | 72 | 1 | 8.0 | 10.0 | 0.00 | 0.00 | 0.00 | 99 | 1027.7 |
| 20260831202607 | 73 | 1 | 8.0 | 10.0 | 0.00 | 0.00 | 0.00 | 99 | 1027.8 |
| 20260831202102 | 73 | 1 | 8.0 | 10.0 | 0.00 | 0.00 | 0.00 | 99 | 1027.8 |
| 20260831201600 | 73 | 348 | 9.0 | 10.0 | 0.00 | 0.00 | 0.00 | 99 | 1027.8 |
| 20260831201056 | 73 | 348 | 9.0 | 10.0 | 0.00 | 0.00 | 0.00 | 99 | 1027.8 |
| 20260831200552 | 75 | 319 | 5.0 | 6.0 | 0.00 | 0.00 | 0.00 | 99 | 1028.0 |
| 20260831200051 | 75 | 319 | 5.0 | 6.0 | 0.00 | 0.00 | 0.00 | 99 | 1028.0 |
| 20260831195547 | 75 | 138 | 4.0 | 6.0 | 0.00 | 0.00 | 0.00 | 99 | 1028.0 |
| 20260831195042 | 75 | 138 | 4.0 | 6.0 | 0.00 | 0.00 | 0.00 | 99 | 1028.0 |
| 20260831194537 | 75 | 131 | 0.0 | 1.0 | 0.00 | 0.00 | 0.00 | 99 | 1028.2 |
| 20260831194032 | 75 | 131 | 0.0 | 1.0 | 0.00 | 0.00 | 0.00 | 99 | 1028.2 |
| 20260831193527 | 78 | 7 | 3.0 | 3.0 | 0.00 | 0.00 | 0.00 | 99 | 1028.3 |
| 20260831193022 | 78 | 7 | 3.0 | 3.0 | 0.00 | 0.00 | 0.00 | 99 | 1028.3 |
| 20260831192517 | 75 | 126 | 3.0 | 3.0 | 0.00 | 0.00 | 0.00 | 99 | 1028.5 |
| 20260831192012 | 75 | 126 | 3.0 | 3.0 | 0.00 | 0.00 | 0.00 | 99 | 1028.5 |
| 20260831191503 | 77 | 143 | 1.0 | 3.0 | 0.00 | 0.00 | 0.00 | 99 | 1028.5 |
| 20260831190959 | 77 | 143 | 1.0 | 3.0 | 0.00 | 0.00 | 0.00 | 99 | 1028.5 |
| 20260831190454 | 76 | 141 | 3.0 | 3.0 | 0.00 | 0.00 | 0.00 | 99 | 1028.6 |
| 20260831185952 | 76 | 141 | 3.0 | 3.0 | 0.00 | 0.00 | 0.00 | 99 | 1028.6 |
| 20260831185449 | 74 | 43 | 6.0 | 7.0 | 0.00 | 0.00 | 0.00 | 99 | 1028.6 |
| 20260831184948 | 74 | 43 | 6.0 | 7.0 | 0.00 | 0.00 | 0.00 | 99 | 1028.6 |
| 20260831184443 | 74 | 109 | 0.0 | 1.0 | 0.00 | 0.00 | 0.00 | 99 | 1028.6 |
| 20260831183938 | 74 | 109 | 0.0 | 1.0 | 0.00 | 0.00 | 0.00 | 99 | 1028.6 |
| 20260831183437 | 73 | 142 | 1.0 | 2.0 | 0.00 | 0.00 | 0.00 | 99 | 1029.0 |
| 20260831182937 | 73 | 142 | 1.0 | 2.0 | 0.00 | 0.00 | 0.00 | 99 | 1029.0 |
| 20260831182433 | 72 | 146 | 0.0 | 1.0 | 0.00 | 0.00 | 0.00 | 99 | 1029.0 |
| 20260831181928 | 72 | 146 | 0.0 | 1.0 | 0.00 | 0.00 | 0.00 | 99 | 1029.0 |
| 20260831181424 | 72 | 62 | 3.0 | 4.0 | 0.00 | 0.00 | 0.00 | 99 | 1029.1 |
| 20260831180923 | 72 | 62 | 3.0 | 4.0 | 0.00 | 0.00 | 0.00 | 99 | 1029.1 |
| 20260831180418 | 71 | 47 | 9.0 | 10.0 | 0.00 | 0.00 | 0.00 | 99 | 1029.0 |
| 20260831175917 | 71 | 47 | 9.0 | 10.0 | 0.00 | 0.00 | 0.00 | 99 | 1029.0 |
| 20260831175414 | 73 | 26 | 4.0 | 6.0 | 0.00 | 0.00 | 0.00 | 99 | 1029.0 |
| 20260831174909 | 73 | 26 | 4.0 | 6.0 | 0.00 | 0.00 | 0.00 | 99 | 1029.0 |
| 20260831174404 | 71 | 43 | 5.0 | 8.0 | 0.00 | 0.00 | 0.00 | 99 | 1029.0 |
| 20260831173903 | 71 | 43 | 5.0 | 8.0 | 0.00 | 0.00 | 0.00 | 99 | 1029.0 |
| 20260831173403 | 71 | 65 | 8.0 | 10.0 | 0.00 | 0.00 | 0.00 | 99 | 1029.1 |
| 20260831172858 | 71 | 65 | 8.0 | 10.0 | 0.00 | 0.00 | 0.00 | 99 | 1029.1 |
| 20260831171604 | 72 | 23 | 4.0 | 4.0 | 0.00 | 0.00 | 0.00 | 99 | 1029.1 |
| 20260831171102 | 72 | 23 | 4.0 | 4.0 | 0.00 | 0.00 | 0.00 | 99 | 1029.1 |
| 20260831170557 | 68 | 36 | 2.0 | 2.0 | 0.00 | 0.00 | 0.00 | 99 | 1029.1 |
| 20260831170055 | 68 | 36 | 2.0 | 2.0 | 0.00 | 0.00 | 0.00 | 99 | 1029.1 |
| 20260831165554 | 68 | 75 | 3.0 | 3.0 | 0.00 | 0.00 | 0.00 | 99 | 1029.1 |
| 20260831165051 | 68 | 75 | 3.0 | 3.0 | 0.00 | 0.00 | 0.00 | 99 | 1029.1 |
| 20260831164547 | 68 | 91 | 1.0 | 2.0 | 0.00 | 0.00 | 0.00 | 99 | 1029.0 |
| 20260831164042 | 68 | 91 | 1.0 | 2.0 | 0.00 | 0.00 | 0.00 | 99 | 1029.0 |
| 20260831163537 | 68 | 94 | 1.0 | 1.0 | 0.00 | 0.00 | 0.00 | 99 | 1028.8 |
| 20260831163033 | 68 | 94 | 1.0 | 1.0 | 0.00 | 0.00 | 0.00 | 99 | 1028.8 |
| 20260831162531 | 66 | 145 | 1.0 | 2.0 | 0.00 | 0.00 | 0.00 | 99 | 1028.7 |
| 20260831162030 | 66 | 145 | 1.0 | 2.0 | 0.00 | 0.00 | 0.00 | 99 | 1028.7 |
| 20260831161526 | 65 | 26 | 2.0 | 2.0 | 0.00 | 0.00 | 0.00 | 99 | 1029.0 |
| 20260831161022 | 65 | 26 | 2.0 | 2.0 | 0.00 | 0.00 | 0.00 | 99 | 1029.0 |
| 20260831160521 | 64 | 131 | 0.0 | 0.0 | 0.00 | 0.00 | 0.00 | 99 | 1028.7 |
| 20260831160017 | 64 | 131 | 0.0 | 0.0 | 0.00 | 0.00 | 0.00 | 99 | 1028.7 |
| 20260831155511 | 63 | 160 | 2.0 | 2.0 | 0.00 | 0.00 | 0.00 | 99 | 1028.5 |
| 20260831155006 | 63 | 160 | 2.0 | 2.0 | 0.00 | 0.00 | 0.00 | 99 | 1028.5 |
| 20260831154503 | 63 | 89 | 4.0 | 4.0 | 0.00 | 0.00 | 0.00 | 99 | 1028.6 |
| 20260831154001 | 63 | 89 | 4.0 | 4.0 | 0.00 | 0.00 | 0.00 | 99 | 1028.6 |
| 20260831153457 | 63 | 107 | 4.0 | 4.0 | 0.00 | 0.00 | 0.00 | 99 | 1028.6 |
| 20260831152954 | 63 | 107 | 4.0 | 4.0 | 0.00 | 0.00 | 0.00 | 99 | 1028.6 |
| 20260831152454 | 62 | 81 | 5.0 | 6.0 | 0.00 | 0.00 | 0.00 | 99 | 1028.3 |
| 20260831151949 | 62 | 81 | 5.0 | 6.0 | 0.00 | 0.00 | 0.00 | 99 | 1028.3 |
| 20260831151449 | 60 | 107 | 4.0 | 6.0 | 0.00 | 0.00 | 0.00 | 99 | 1028.2 |
| 20260831150944 | 60 | 107 | 4.0 | 6.0 | 0.00 | 0.00 | 0.00 | 99 | 1028.2 |
| 20260831150439 | 60 | 107 | 4.0 | 4.0 | 0.00 | 0.00 | 0.00 | 99 | 1028.3 |
| 20260831145939 | 60 | 107 | 4.0 | 4.0 | 0.00 | 0.00 | 0.00 | 99 | 1028.3 |
| 20260831145435 | 60 | 82 | 6.0 | 7.0 | 0.00 | 0.00 | 0.00 | 99 | 1028.2 |
| 20260831144930 | 60 | 82 | 6.0 | 7.0 | 0.00 | 0.00 | 0.00 | 99 | 1028.2 |
| 20260831144426 | 60 | 96 | 4.0 | 4.0 | 0.00 | 0.00 | 0.00 | 99 | 1028.3 |
| 20260831143921 | 60 | 96 | 4.0 | 4.0 | 0.00 | 0.00 | 0.00 | 99 | 1028.3 |
| 20260831143411 | 59 | 96 | 7.0 | 8.0 | 0.00 | 0.00 | 0.00 | 99 | 1028.1 |
| 20260831142907 | 59 | 96 | 7.0 | 8.0 | 0.00 | 0.00 | 0.00 | 99 | 1028.1 |
| 20260831142402 | 59 | 95 | 10.0 | 13.0 | 0.00 | 0.00 | 0.00 | 99 | 1028.0 |
| 20260831141902 | 59 | 95 | 10.0 | 13.0 | 0.00 | 0.00 | 0.00 | 99 | 1028.0 |
| 20260831141355 | 59 | 116 | 6.0 | 7.0 | 0.00 | 0.00 | 0.00 | 99 | 1028.0 |
| 20260831140851 | 59 | 116 | 6.0 | 7.0 | 0.00 | 0.00 | 0.00 | 99 | 1028.0 |
| 20260831140345 | 59 | 127 | 6.0 | 7.0 | 0.00 | 0.00 | 0.00 | 99 | 1027.8 |
| 20260831135844 | 59 | 127 | 6.0 | 7.0 | 0.00 | 0.00 | 0.00 | 99 | 1027.8 |
| 20260831135339 | 59 | 117 | 7.0 | 8.0 | 0.00 | 0.00 | 0.00 | 99 | 1027.7 |
| 20260831134834 | 59 | 122 | 6.0 | 8.0 | 0.00 | 0.00 | 0.00 | 99 | 1027.5 |
| 20260831134331 | 59 | 122 | 6.0 | 8.0 | 0.00 | 0.00 | 0.00 | 99 | 1027.5 |
| 20260831133830 | 59 | 70 | 9.0 | 10.0 | 0.00 | 0.00 | 0.00 | 99 | 1027.6 |
| 20260831133329 | 59 | 70 | 9.0 | 10.0 | 0.00 | 0.00 | 0.00 | 99 | 1027.6 |
| 20260831132825 | 60 | 88 | 8.0 | 10.0 | 0.00 | 0.00 | 0.00 | 99 | 1027.5 |
| 20260831132320 | 60 | 88 | 8.0 | 10.0 | 0.00 | 0.00 | 0.00 | 99 | 1027.5 |
| 20260831131814 | 61 | 63 | 12.0 | 15.0 | 0.00 | 0.00 | 0.00 | 99 | 1027.2 |
| 20260831131311 | 61 | 63 | 12.0 | 15.0 | 0.00 | 0.00 | 0.00 | 99 | 1027.2 |
| 20260831130805 | 60 | 63 | 10.0 | 11.0 | 0.00 | 0.00 | 0.00 | 99 | 1027.2 |
| 20260831130301 | 60 | 63 | 10.0 | 11.0 | 0.00 | 0.00 | 0.00 | 99 | 1027.2 |
| 20260831125800 | 61 | 70 | 8.0 | 10.0 | 0.00 | 0.00 | 0.00 | 99 | 1027.2 |
| 20260831125256 | 61 | 70 | 8.0 | 10.0 | 0.00 | 0.00 | 0.00 | 99 | 1027.2 |
| 20260831124755 | 62 | 68 | 7.0 | 9.0 | 0.00 | 0.00 | 0.00 | 99 | 1027.2 |
| 20260831124252 | 62 | 68 | 7.0 | 9.0 | 0.00 | 0.00 | 0.00 | 99 | 1027.2 |
| 20260831123752 | 61 | 60 | 6.0 | 7.0 | 0.00 | 0.00 | 0.00 | 99 | 1027.2 |
| 20260831123251 | 61 | 60 | 6.0 | 7.0 | 0.00 | 0.00 | 0.00 | 99 | 1027.2 |
| 20260831122746 | 62 | 63 | 3.0 | 4.0 | 0.00 | 0.00 | 0.00 | 99 | 1027.0 |
| 20260831122242 | 62 | 63 | 3.0 | 4.0 | 0.00 | 0.00 | 0.00 | 99 | 1027.0 |
| 20260831121740 | 62 | 53 | 6.0 | 7.0 | 0.00 | 0.00 | 0.00 | 99 | 1027.1 |
| 20260831121237 | 62 | 53 | 6.0 | 7.0 | 0.00 | 0.00 | 0.00 | 99 | 1027.1 |
| 20260831120732 | 62 | 51 | 3.0 | 6.0 | 0.00 | 0.00 | 0.00 | 99 | 1027.0 |
| 20260831120227 | 62 | 51 | 3.0 | 6.0 | 0.00 | 0.00 | 0.00 | 99 | 1027.0 |
| 20260831115722 | 62 | 94 | 4.0 | 4.0 | 0.00 | 0.00 | 0.00 | 99 | 1026.8 |
| 20260831115219 | 62 | 94 | 4.0 | 4.0 | 0.00 | 0.00 | 0.00 | 99 | 1026.8 |
| 20260831114718 | 63 | 78 | 3.0 | 3.0 | 0.00 | 0.00 | 0.00 | 99 | 1027.1 |
| 20260831114217 | 63 | 78 | 3.0 | 3.0 | 0.00 | 0.00 | 0.00 | 99 | 1027.1 |
| 20260831113713 | 63 | 58 | 4.0 | 4.0 | 0.00 | 0.00 | 0.00 | 99 | 1026.8 |
| 20260831113212 | 63 | 58 | 4.0 | 4.0 | 0.00 | 0.00 | 0.00 | 99 | 1026.8 |
| 20260831112706 | 63 | 112 | 4.0 | 6.0 | 0.00 | 0.00 | 0.00 | 99 | 1026.8 |
| 20260831112202 | 63 | 112 | 4.0 | 6.0 | 0.00 | 0.00 | 0.00 | 99 | 1026.8 |
| 20260831111657 | 64 | 76 | 4.0 | 6.0 | 0.00 | 0.00 | 0.00 | 99 | 1026.8 |
| 20260831111154 | 64 | 76 | 4.0 | 6.0 | 0.00 | 0.00 | 0.00 | 99 | 1026.8 |
| 20260831110649 | 63 | 64 | 9.0 | 11.0 | 0.00 | 0.00 | 0.00 | 99 | 1026.8 |
| 20260831110144 | 63 | 64 | 9.0 | 11.0 | 0.00 | 0.00 | 0.00 | 99 | 1026.8 |
| 20260831105643 | 63 | 85 | 9.0 | 13.0 | 0.00 | 0.00 | 0.00 | 99 | 1026.3 |
| 20260831105138 | 63 | 85 | 9.0 | 13.0 | 0.00 | 0.00 | 0.00 | 99 | 1026.3 |
| 20260831104633 | 62 | 77 | 11.0 | 11.0 | 0.00 | 0.00 | 0.00 | 99 | 1026.3 |
| 20260831104130 | 62 | 77 | 11.0 | 11.0 | 0.00 | 0.00 | 0.00 | 99 | 1026.3 |
| 20260831103625 | 62 | 79 | 11.0 | 14.0 | 0.00 | 0.00 | 0.00 | 99 | 1026.1 |
| 20260831103120 | 62 | 79 | 11.0 | 14.0 | 0.00 | 0.00 | 0.00 | 99 | 1026.1 |
| 20260831102615 | 61 | 87 | 9.0 | 10.0 | 0.00 | 0.00 | 0.00 | 99 | 1026.2 |
| 20260831102110 | 61 | 87 | 9.0 | 10.0 | 0.00 | 0.00 | 0.00 | 99 | 1026.2 |
| 20260831101609 | 61 | 101 | 6.0 | 8.0 | 0.00 | 0.00 | 0.00 | 99 | 1026.1 |
| 20260831101106 | 61 | 101 | 6.0 | 8.0 | 0.00 | 0.00 | 0.00 | 99 | 1026.1 |
| 20260831100602 | 62 | 97 | 9.0 | 10.0 | 0.00 | 0.00 | 0.00 | 99 | 1026.0 |
| 20260831100057 | 62 | 97 | 9.0 | 10.0 | 0.00 | 0.00 | 0.00 | 99 | 1026.0 |
| 20260831095555 | 62 | 76 | 15.0 | 16.0 | 0.00 | 0.00 | 0.00 | 99 | 1026.0 |
| 20260831095050 | 62 | 76 | 15.0 | 16.0 | 0.00 | 0.00 | 0.00 | 99 | 1026.0 |
| 20260831094546 | 62 | 78 | 10.0 | 21.0 | 0.00 | 0.00 | 0.00 | 99 | 1025.8 |
| 20260831094042 | 62 | 78 | 10.0 | 21.0 | 0.00 | 0.00 | 0.00 | 99 | 1025.8 |
| 20260831093537 | 62 | 66 | 7.0 | 8.0 | 0.00 | 0.00 | 0.00 | 99 | 1025.7 |
| 20260831093033 | 62 | 66 | 7.0 | 8.0 | 0.00 | 0.00 | 0.00 | 99 | 1025.7 |
| 20260831092528 | 62 | 93 | 11.0 | 15.0 | 0.00 | 0.00 | 0.00 | 99 | 1025.6 |
| 20260831092024 | 62 | 93 | 11.0 | 15.0 | 0.00 | 0.00 | 0.00 | 99 | 1025.6 |
| 20260831091519 | 61 | 82 | 9.0 | 10.0 | 0.00 | 0.00 | 0.00 | 99 | 1025.5 |
| 20260831091015 | 61 | 82 | 9.0 | 10.0 | 0.00 | 0.00 | 0.00 | 99 | 1025.5 |
| 20260831090510 | 61 | 120 | 8.0 | 9.0 | 0.00 | 0.00 | 0.00 | 99 | 1025.6 |
| 20260831090006 | 61 | 120 | 8.0 | 9.0 | 0.00 | 0.00 | 0.00 | 99 | 1025.6 |
| 20260831085501 | 61 | 140 | 9.0 | 11.0 | 0.00 | 0.00 | 0.00 | 99 | 1025.6 |
| 20260831085001 | 61 | 140 | 9.0 | 11.0 | 0.00 | 0.00 | 0.00 | 99 | 1025.6 |
| 20260831084457 | 62 | 139 | 3.0 | 4.0 | 0.00 | 0.00 | 0.00 | 99 | 1025.8 |
| 20260831083953 | 62 | 139 | 3.0 | 4.0 | 0.00 | 0.00 | 0.00 | 99 | 1025.8 |
| 20260831083447 | 62 | 92 | 6.0 | 8.0 | 0.00 | 0.00 | 0.00 | 99 | 1025.8 |
| 20260831082942 | 62 | 92 | 6.0 | 8.0 | 0.00 | 0.00 | 0.00 | 99 | 1025.8 |
| 20260831082442 | 63 | 127 | 11.0 | 14.0 | 0.00 | 0.00 | 0.00 | 99 | 1025.6 |
| 20260831081936 | 63 | 127 | 11.0 | 14.0 | 0.00 | 0.00 | 0.00 | 99 | 1025.6 |
| 20260831081432 | 63 | 85 | 6.0 | 8.0 | 0.00 | 0.00 | 0.00 | 99 | 1026.0 |
| 20260831080928 | 63 | 85 | 6.0 | 8.0 | 0.00 | 0.00 | 0.00 | 99 | 1026.0 |
| 20260831080423 | 64 | 53 | 12.0 | 14.0 | 0.00 | 0.00 | 0.00 | 99 | 1026.0 |
| 20260831075919 | 64 | 53 | 12.0 | 14.0 | 0.00 | 0.00 | 0.00 | 99 | 1026.0 |
| 20260831075414 | 64 | 48 | 6.0 | 9.0 | 0.00 | 0.00 | 0.00 | 99 | 1025.7 |
| 20260831074909 | 64 | 48 | 6.0 | 9.0 | 0.00 | 0.00 | 0.00 | 99 | 1025.7 |
| 20260831074408 | 63 | 19 | 10.0 | 15.0 | 0.00 | 0.00 | 0.00 | 99 | 1025.6 |
| 20260831073903 | 63 | 19 | 10.0 | 15.0 | 0.00 | 0.00 | 0.00 | 99 | 1025.6 |
| 20260831073402 | 63 | 88 | 11.0 | 17.0 | 0.00 | 0.00 | 0.00 | 99 | 1025.7 |
| 20260831072857 | 63 | 88 | 11.0 | 17.0 | 0.00 | 0.00 | 0.00 | 99 | 1025.7 |
| 20260831072353 | 62 | 104 | 6.0 | 10.0 | 0.00 | 0.00 | 0.00 | 99 | 1026.0 |
| 20260831071849 | 62 | 104 | 6.0 | 10.0 | 0.00 | 0.00 | 0.00 | 99 | 1026.0 |
| 20260831071348 | 61 | 80 | 2.0 | 4.0 | 0.00 | 0.00 | 0.00 | 99 | 1026.0 |
| 20260831070843 | 61 | 80 | 2.0 | 4.0 | 0.00 | 0.00 | 0.00 | 99 | 1026.0 |
| 20260831070342 | 62 | 72 | 1.0 | 2.0 | 0.00 | 0.00 | 0.00 | 99 | 1026.6 |
| 20260831065841 | 62 | 72 | 1.0 | 2.0 | 0.00 | 0.00 | 0.00 | 99 | 1026.6 |
| 20260831065339 | 61 | 147 | 0.0 | 0.0 | 0.00 | 0.00 | 0.00 | 99 | 1026.5 |
| 20260831064834 | 61 | 147 | 0.0 | 0.0 | 0.00 | 0.00 | 0.00 | 99 | 1026.5 |
| 20260831064330 | 62 | 157 | 1.0 | 1.0 | 0.00 | 0.00 | 0.00 | 99 | 1026.6 |
| 20260831063826 | 62 | 157 | 1.0 | 1.0 | 0.00 | 0.00 | 0.00 | 99 | 1026.6 |
| 20260831063326 | 62 | 221 | 2.0 | 3.0 | 0.00 | 0.00 | 0.00 | 99 | 1026.7 |
| 20260831062826 | 62 | 221 | 2.0 | 3.0 | 0.00 | 0.00 | 0.00 | 99 | 1026.7 |
| 20260831062321 | 62 | 150 | 2.0 | 3.0 | 0.00 | 0.00 | 0.00 | 99 | 1026.8 |
| 20260831061821 | 62 | 150 | 2.0 | 3.0 | 0.00 | 0.00 | 0.00 | 99 | 1026.8 |
| 20260831061320 | 62 | 160 | 5.0 | 6.0 | 0.00 | 0.00 | 0.00 | 99 | 1026.8 |
| 20260831060816 | 62 | 160 | 5.0 | 6.0 | 0.00 | 0.00 | 0.00 | 99 | 1026.8 |